| time (UTC) | temp F | wind direction | speed MPH | gust MPH | rain 1hr in | rain 24hr in | rain mn in | humidity % | barometer mb |
| 20260507060504 | 57 | 111 | 0.0 | 3.0 | 0.00 | 0.00 | 0.00 | 86 | 1016.9 |
| 20260507060004 | 57 | 97 | 0.0 | 3.0 | 0.00 | 0.00 | 0.00 | 86 | 1016.8 |
| 20260507055503 | 58 | 126 | 0.0 | 1.0 | 0.00 | 0.00 | 0.00 | 85 | 1017.0 |
| 20260507055004 | 58 | 112 | 0.0 | 3.0 | 0.00 | 0.00 | 0.00 | 85 | 1017.0 |
| 20260507054504 | 58 | 111 | 1.0 | 3.0 | 0.00 | 0.00 | 0.00 | 85 | 1016.9 |
| 20260507054003 | 58 | 103 | 1.0 | 4.0 | 0.00 | 0.00 | 0.00 | 84 | 1016.8 |
| 20260507052503 | 58 | 89 | 0.0 | 4.0 | 0.00 | 0.00 | 0.00 | 83 | 1017.1 |
| 20260507052003 | 58 | 88 | 1.0 | 6.0 | 0.00 | 0.00 | 0.00 | 83 | 1017.1 |
| 20260507051504 | 58 | 98 | 1.0 | 6.0 | 0.00 | 0.00 | 0.00 | 83 | 1017.1 |
| 20260507051003 | 58 | 117 | 0.0 | 6.0 | 0.00 | 0.00 | 0.00 | 83 | 1017.0 |
| 20260507050503 | 59 | 99 | 1.0 | 6.0 | 0.00 | 0.00 | 0.00 | 83 | 1017.1 |
| 20260507050004 | 59 | 89 | 1.0 | 4.0 | 0.00 | 0.00 | 0.00 | 82 | 1017.1 |
| 20260507045504 | 59 | 85 | 1.0 | 5.0 | 0.00 | 0.00 | 0.00 | 82 | 1017.1 |
| 20260507045003 | 59 | 103 | 1.0 | 5.0 | 0.00 | 0.00 | 0.00 | 82 | 1017.2 |
| 20260507044501 | 59 | 104 | 1.0 | 5.0 | 0.00 | 0.00 | 0.00 | 82 | 1017.1 |
| 20260507044001 | 59 | 95 | 1.0 | 4.0 | 0.00 | 0.00 | 0.00 | 83 | 1017.2 |
| 20260507043501 | 59 | 90 | 1.0 | 4.0 | 0.00 | 0.00 | 0.00 | 82 | 1017.2 |
| 20260507043001 | 59 | 82 | 1.0 | 4.0 | 0.00 | 0.00 | 0.00 | 82 | 1017.3 |
| 20260507042502 | 59 | 76 | 1.0 | 4.0 | 0.00 | 0.00 | 0.00 | 83 | 1017.5 |
| 20260507042001 | 59 | 87 | 1.0 | 4.0 | 0.00 | 0.00 | 0.00 | 83 | 1017.4 |
| 20260507041501 | 59 | 71 | 1.0 | 4.0 | 0.00 | 0.00 | 0.00 | 83 | 1017.4 |
| 20260507041002 | 59 | 64 | 1.0 | 3.0 | 0.00 | 0.00 | 0.00 | 82 | 1017.4 |
| 20260507040501 | 60 | 90 | 0.0 | 3.0 | 0.00 | 0.00 | 0.00 | 83 | 1017.6 |
| 20260507040001 | 60 | 73 | 1.0 | 3.0 | 0.00 | 0.00 | 0.00 | 83 | 1017.6 |
| 20260507035501 | 59 | 78 | 1.0 | 4.0 | 0.00 | 0.00 | 0.00 | 83 | 1017.5 |
| 20260507035001 | 60 | 91 | 1.0 | 4.0 | 0.00 | 0.00 | 0.00 | 83 | 1017.5 |
| 20260507034501 | 60 | 84 | 1.0 | 4.0 | 0.00 | 0.00 | 0.00 | 83 | 1017.4 |
| 20260507034001 | 60 | 75 | 1.0 | 4.0 | 0.00 | 0.00 | 0.00 | 83 | 1017.4 |
| 20260507033001 | 60 | 40 | 1.0 | 3.0 | 0.00 | 0.00 | 0.00 | 83 | 1017.4 |
| 20260507032501 | 60 | 61 | 1.0 | 5.0 | 0.00 | 0.00 | 0.00 | 83 | 1017.2 |
| 20260507032001 | 60 | 104 | 1.0 | 6.0 | 0.00 | 0.00 | 0.00 | 84 | 1017.1 |
| 20260507031501 | 60 | 90 | 1.0 | 6.0 | 0.00 | 0.00 | 0.00 | 84 | 1017.1 |
| 20260507030501 | 59 | 103 | 0.0 | 2.0 | 0.00 | 0.00 | 0.00 | 84 | 1016.9 |
| 20260507030002 | 59 | 105 | 0.0 | 2.0 | 0.00 | 0.00 | 0.00 | 84 | 1016.7 |
| 20260507025002 | 59 | 89 | 0.0 | 2.0 | 0.00 | 0.00 | 0.00 | 84 | 1016.7 |
| 20260507024002 | 59 | 89 | 0.0 | 3.0 | 0.00 | 0.00 | 0.00 | 85 | 1016.6 |
| 20260507023501 | 59 | 40 | 0.0 | 3.0 | 0.00 | 0.00 | 0.00 | 85 | 1016.5 |
| 20260507022502 | 59 | 74 | 1.0 | 3.0 | 0.00 | 0.00 | 0.00 | 85 | 1016.3 |
| 20260507022001 | 59 | 69 | 0.0 | 4.0 | 0.00 | 0.00 | 0.00 | 86 | 1016.3 |
| 20260507020501 | 60 | 92 | 1.0 | 3.0 | 0.00 | 0.00 | 0.00 | 86 | 1015.9 |
| 20260507020002 | 60 | 96 | 1.0 | 3.0 | 0.00 | 0.00 | 0.00 | 86 | 1015.8 |
| 20260507015501 | 60 | 79 | 1.0 | 3.0 | 0.00 | 0.00 | 0.00 | 86 | 1015.7 |
| 20260507015001 | 60 | 80 | 1.0 | 3.0 | 0.00 | 0.00 | 0.00 | 86 | 1015.6 |
| 20260507014502 | 60 | 94 | 1.0 | 3.0 | 0.00 | 0.00 | 0.00 | 86 | 1015.5 |
| 20260507013502 | 60 | 119 | 0.0 | 1.0 | 0.00 | 0.00 | 0.00 | 86 | 1015.3 |
| 20260507013001 | 59 | 110 | 0.0 | 4.0 | 0.00 | 0.00 | 0.00 | 86 | 1015.2 |
| 20260507012502 | 59 | 113 | 0.0 | 4.0 | 0.00 | 0.00 | 0.00 | 86 | 1015.1 |
| 20260507012001 | 59 | 129 | 0.0 | 4.0 | 0.00 | 0.00 | 0.00 | 86 | 1015.0 |
| 20260507011502 | 59 | 87 | 0.0 | 3.0 | 0.00 | 0.00 | 0.00 | 86 | 1014.9 |
| 20260507011002 | 59 | 67 | 0.0 | 3.0 | 0.00 | 0.00 | 0.00 | 86 | 1014.7 |
| 20260507010502 | 59 | 65 | 0.0 | 2.0 | 0.00 | 0.00 | 0.00 | 86 | 1014.7 |
| 20260507010002 | 59 | 84 | 0.0 | 5.0 | 0.00 | 0.00 | 0.00 | 86 | 1014.8 |
| 20260507005502 | 59 | 77 | 1.0 | 5.0 | 0.00 | 0.00 | 0.00 | 86 | 1014.9 |
| 20260507005002 | 59 | 75 | 0.0 | 3.0 | 0.00 | 0.00 | 0.00 | 86 | 1014.7 |
| 20260507004501 | 59 | 98 | 0.0 | 2.0 | 0.00 | 0.00 | 0.00 | 86 | 1014.8 |
| 20260507003502 | 59 | 103 | 0.0 | 2.0 | 0.00 | 0.02 | 0.00 | 85 | 1014.8 |
| 20260507003002 | 60 | 96 | 0.0 | 2.0 | 0.00 | 0.02 | 0.00 | 85 | 1014.5 |
| 20260507002501 | 60 | 84 | 1.0 | 4.0 | 0.00 | 0.03 | 0.00 | 85 | 1014.4 |
| 20260507002002 | 60 | 88 | 0.0 | 4.0 | 0.00 | 0.04 | 0.00 | 85 | 1014.4 |
| 20260507001503 | 60 | 105 | 0.0 | 3.0 | 0.00 | 0.04 | 0.00 | 85 | 1014.4 |
| 20260507001002 | 60 | 110 | 0.0 | 3.0 | 0.00 | 0.04 | 0.00 | 85 | 1014.5 |
| 20260507000501 | 60 | 79 | 0.0 | 2.0 | 0.00 | 0.04 | 0.00 | 84 | 1014.3 |
| 20260507000002 | 60 | 40 | 0.0 | 2.0 | 0.00 | 0.04 | 0.00 | 85 | 1014.2 |
| 20260506235501 | 60 | 41 | 0.0 | 2.0 | 0.00 | 0.04 | 0.00 | 84 | 1014.1 |
| 20260506234002 | 60 | 79 | 0.0 | 2.0 | 0.00 | 0.04 | 0.00 | 84 | 1014.3 |
| 20260506233501 | 60 | 78 | 0.0 | 2.0 | 0.00 | 0.04 | 0.00 | 83 | 1014.3 |
| 20260506231501 | 60 | 105 | 0.0 | 2.0 | 0.00 | 0.04 | 0.00 | 83 | 1014.0 |
| 20260506230502 | 60 | 97 | 1.0 | 6.0 | 0.00 | 0.04 | 0.00 | 83 | 1014.0 |
| 20260506230002 | 60 | 92 | 1.0 | 6.0 | 0.00 | 0.04 | 0.00 | 83 | 1013.7 |
| 20260506225502 | 60 | 66 | 0.0 | 2.0 | 0.00 | 0.04 | 0.00 | 83 | 1013.8 |
| 20260506225001 | 60 | 83 | 1.0 | 2.0 | 0.00 | 0.04 | 0.00 | 83 | 1013.9 |
| 20260506224502 | 60 | 97 | 1.0 | 2.0 | 0.00 | 0.04 | 0.00 | 82 | 1013.9 |
| 20260506224001 | 61 | 92 | 0.0 | 2.0 | 0.00 | 0.04 | 0.00 | 83 | 1013.7 |
| 20260506223502 | 61 | 74 | 0.0 | 2.0 | 0.00 | 0.04 | 0.00 | 83 | 1013.8 |
| 20260506222502 | 61 | 80 | 0.0 | 2.0 | 0.00 | 0.04 | 0.00 | 82 | 1013.7 |
| 20260506222002 | 61 | 84 | 0.0 | 2.0 | 0.00 | 0.04 | 0.00 | 82 | 1013.7 |
| 20260506221502 | 61 | 69 | 0.0 | 2.0 | 0.00 | 0.04 | 0.00 | 82 | 1013.5 |
| 20260506221002 | 61 | 41 | 1.0 | 3.0 | 0.00 | 0.04 | 0.00 | 82 | 1013.4 |
| 20260506220502 | 61 | 33 | 1.0 | 3.0 | 0.00 | 0.04 | 0.00 | 81 | 1013.4 |
| 20260506220002 | 61 | 56 | 1.0 | 2.0 | 0.00 | 0.04 | 0.00 | 81 | 1013.1 |
| 20260506215502 | 61 | 41 | 1.0 | 3.0 | 0.00 | 0.04 | 0.00 | 81 | 1013.3 |
| 20260506215001 | 61 | 7 | 1.0 | 3.0 | 0.00 | 0.04 | 0.00 | 81 | 1013.2 |
| 20260506214502 | 61 | 334 | 0.0 | 2.0 | 0.00 | 0.04 | 0.00 | 80 | 1013.3 |
| 20260506214001 | 61 | 295 | 0.0 | 1.0 | 0.00 | 0.04 | 0.00 | 81 | 1013.4 |
| 20260506213502 | 61 | 59 | 0.0 | 2.0 | 0.00 | 0.04 | 0.00 | 80 | 1013.4 |
| 20260506213001 | 62 | 89 | 0.0 | 2.0 | 0.00 | 0.04 | 0.00 | 80 | 1013.4 |
| 20260506212502 | 62 | 97 | 0.0 | 2.0 | 0.00 | 0.04 | 0.00 | 80 | 1013.4 |
| 20260506211502 | 62 | 119 | 0.0 | 2.0 | 0.00 | 0.04 | 0.00 | 80 | 1013.5 |
| 20260506211002 | 62 | 113 | 0.0 | 2.0 | 0.00 | 0.04 | 0.00 | 79 | 1013.5 |
| 20260506210002 | 62 | 322 | 0.0 | 2.0 | 0.00 | 0.04 | 0.00 | 80 | 1013.5 |
| 20260506205002 | 62 | 79 | 1.0 | 2.0 | 0.00 | 0.04 | 0.00 | 79 | 1013.9 |
| 20260506204503 | 62 | 80 | 1.0 | 4.0 | 0.00 | 0.04 | 0.00 | 79 | 1013.7 |
| 20260506204002 | 62 | 96 | 0.0 | 4.0 | 0.00 | 0.04 | 0.00 | 79 | 1013.8 |
| 20260506203502 | 62 | 347 | 1.0 | 3.0 | 0.00 | 0.04 | 0.00 | 80 | 1013.8 |
| 20260506203002 | 62 | 283 | 1.0 | 3.0 | 0.00 | 0.04 | 0.00 | 79 | 1013.8 |
| 20260506200503 | 61 | 230 | 0.0 | 2.0 | 0.00 | 0.04 | 0.00 | 81 | 1014.4 |
| 20260506200003 | 61 | 278 | 0.0 | 2.0 | 0.00 | 0.04 | 0.00 | 80 | 1014.5 |
| 20260506195002 | 61 | 320 | 1.0 | 4.0 | 0.00 | 0.04 | 0.00 | 80 | 1014.4 |
| 20260506194502 | 61 | 8 | 1.0 | 4.0 | 0.00 | 0.04 | 0.00 | 81 | 1014.1 |
| 20260506194002 | 60 | 45 | 1.0 | 2.0 | 0.00 | 0.04 | 0.00 | 82 | 1013.7 |
| 20260506193502 | 60 | 110 | 0.0 | 2.0 | 0.00 | 0.04 | 0.00 | 84 | 1013.7 |
| 20260506193003 | 59 | 124 | 0.0 | 2.0 | 0.00 | 0.04 | 0.00 | 84 | 1013.9 |
| 20260506192502 | 58 | 140 | 0.0 | 2.0 | 0.00 | 0.04 | 0.00 | 84 | 1014.2 |
| 20260506192002 | 58 | 61 | 1.0 | 4.0 | 0.00 | 0.04 | 0.00 | 83 | 1014.7 |
| 20260506191502 | 58 | 352 | 1.0 | 4.0 | 0.00 | 0.04 | 0.00 | 83 | 1014.9 |
| 20260506191002 | 59 | 265 | 0.0 | 2.0 | 0.00 | 0.04 | 0.00 | 83 | 1014.8 |
| 20260506190502 | 59 | 264 | 0.0 | 2.0 | 0.00 | 0.04 | 0.00 | 83 | 1014.4 |
| 20260506185502 | 59 | 274 | 0.0 | 1.0 | 0.00 | 0.04 | 0.00 | 83 | 1014.1 |
| 20260506185002 | 59 | 272 | 0.0 | 1.0 | 0.00 | 0.04 | 0.00 | 82 | 1014.2 |
| 20260506184002 | 59 | 124 | 0.0 | 8.0 | 0.00 | 0.04 | 0.00 | 83 | 1014.2 |
| 20260506183503 | 59 | 112 | 0.0 | 2.0 | 0.00 | 0.04 | 0.00 | 84 | 1014.1 |
| 20260506183002 | 59 | 159 | 1.0 | 3.0 | 0.00 | 0.04 | 0.00 | 83 | 1014.2 |
| 20260506182502 | 58 | 79 | 1.0 | 4.0 | 0.00 | 0.04 | 0.00 | 83 | 1013.8 |
| 20260506181502 | 58 | 13 | 1.0 | 3.0 | 0.00 | 0.04 | 0.00 | 84 | 1013.4 |
| 20260506181003 | 58 | 22 | 1.0 | 4.0 | 0.00 | 0.04 | 0.00 | 85 | 1012.9 |
| 20260506180502 | 58 | 26 | 1.0 | 4.0 | 0.00 | 0.04 | 0.00 | 85 | 1012.9 |
| 20260506180002 | 58 | 25 | 2.0 | 5.0 | 0.00 | 0.04 | 0.00 | 85 | 1012.8 |
| 20260506175002 | 58 | 53 | 1.0 | 3.0 | 0.00 | 0.04 | 0.00 | 85 | 1012.9 |
| 20260506174502 | 58 | 48 | 1.0 | 3.0 | 0.00 | 0.04 | 0.00 | 85 | 1013.3 |
| 20260506173503 | 57 | 66 | 1.0 | 4.0 | 0.00 | 0.04 | 0.00 | 85 | 1013.6 |
| 20260506173003 | 57 | 91 | 1.0 | 3.0 | 0.00 | 0.04 | 0.00 | 86 | 1013.8 |
| 20260506172502 | 57 | 98 | 0.0 | 3.0 | 0.00 | 0.04 | 0.00 | 86 | 1014.3 |
| 20260506172002 | 57 | 83 | 0.0 | 2.0 | 0.00 | 0.04 | 0.00 | 86 | 1014.9 |
| 20260506171502 | 57 | 73 | 1.0 | 2.0 | 0.00 | 0.04 | 0.00 | 85 | 1014.7 |
| 20260506171003 | 57 | 201 | 1.0 | 3.0 | 0.00 | 0.04 | 0.00 | 85 | 1014.8 |
| 20260506170502 | 57 | 227 | 1.0 | 3.0 | 0.00 | 0.04 | 0.00 | 85 | 1014.8 |
| 20260506170003 | 57 | 60 | 1.0 | 3.0 | 0.00 | 0.04 | 0.00 | 85 | 1014.3 |
| 20260506165502 | 58 | 54 | 1.0 | 3.0 | 0.00 | 0.04 | 0.00 | 84 | 1013.4 |
| 20260506165003 | 58 | 59 | 1.0 | 3.0 | 0.00 | 0.04 | 0.00 | 83 | 1013.7 |
| 20260506164502 | 58 | 79 | 1.0 | 3.0 | 0.00 | 0.04 | 0.00 | 83 | 1014.0 |
| 20260506164003 | 59 | 60 | 1.0 | 4.0 | 0.00 | 0.04 | 0.00 | 83 | 1014.1 |
| 20260506163502 | 59 | 35 | 1.0 | 5.0 | 0.00 | 0.04 | 0.00 | 83 | 1014.2 |
| 20260506163002 | 59 | 67 | 1.0 | 5.0 | 0.00 | 0.04 | 0.00 | 85 | 1014.2 |
| 20260506162503 | 58 | 24 | 1.0 | 4.0 | 0.00 | 0.04 | 0.00 | 85 | 1014.1 |
| 20260506162002 | 58 | 344 | 0.0 | 3.0 | 0.00 | 0.04 | 0.00 | 87 | 1014.3 |
| 20260506161502 | 57 | 22 | 0.0 | 4.0 | 0.00 | 0.04 | 0.00 | 87 | 1014.4 |
| 20260506160502 | 56 | 111 | 0.0 | 1.0 | 0.00 | 0.04 | 0.00 | 88 | 1014.5 |
| 20260506160003 | 56 | 111 | 0.0 | 1.0 | 0.00 | 0.04 | 0.00 | 88 | 1014.9 |
| 20260506155502 | 56 | 111 | 0.0 | 1.0 | 0.00 | 0.04 | 0.00 | 87 | 1014.6 |
| 20260506155003 | 56 | 117 | 0.0 | 4.0 | 0.00 | 0.04 | 0.00 | 87 | 1014.8 |
| 20260506153002 | 56 | 278 | 1.0 | 3.0 | 0.00 | 0.04 | 0.00 | 83 | 1014.9 |
| 20260506152002 | 56 | 308 | 1.0 | 5.0 | 0.00 | 0.04 | 0.00 | 83 | 1016.2 |
| 20260506151002 | 56 | 80 | 0.0 | 2.0 | 0.00 | 0.04 | 0.00 | 84 | 1015.1 |
| 20260506150502 | 56 | 36 | 1.0 | 3.0 | 0.00 | 0.04 | 0.00 | 84 | 1014.6 |
| 20260506145502 | 56 | 80 | 0.0 | 2.0 | 0.00 | 0.04 | 0.00 | 84 | 1014.5 |
| 20260506145003 | 56 | 18 | 1.0 | 2.0 | 0.00 | 0.04 | 0.00 | 84 | 1014.5 |
| 20260506144502 | 56 | 6 | 1.0 | 3.0 | 0.00 | 0.04 | 0.00 | 84 | 1014.5 |
| 20260506144002 | 56 | 21 | 1.0 | 3.0 | 0.00 | 0.04 | 0.00 | 84 | 1014.1 |
| 20260506143003 | 56 | 44 | 0.0 | 2.0 | 0.00 | 0.04 | 0.00 | 83 | 1014.5 |
| 20260506142503 | 56 | 24 | 0.0 | 2.0 | 0.00 | 0.04 | 0.00 | 84 | 1014.1 |
| 20260506142002 | 55 | 4 | 1.0 | 3.0 | 0.00 | 0.04 | 0.00 | 83 | 1014.1 |
| 20260506141503 | 56 | 8 | 1.0 | 3.0 | 0.00 | 0.04 | 0.00 | 84 | 1014.1 |
| 20260506140503 | 55 | 24 | 1.0 | 2.0 | 0.00 | 0.04 | 0.00 | 84 | 1013.9 |
| 20260506140003 | 56 | 43 | 0.0 | 2.0 | 0.00 | 0.04 | 0.00 | 84 | 1013.7 |
| 20260506135503 | 56 | 40 | 0.0 | 2.0 | 0.00 | 0.04 | 0.00 | 84 | 1013.7 |
| 20260506134503 | 55 | 54 | 1.0 | 3.0 | 0.00 | 0.04 | 0.00 | 84 | 1013.8 |
| 20260506133502 | 56 | 41 | 1.0 | 2.0 | 0.00 | 0.04 | 0.00 | 85 | 1013.7 |
| 20260506132502 | 56 | 296 | 0.0 | 2.0 | 0.00 | 0.04 | 0.00 | 84 | 1013.4 |
| 20260506132003 | 56 | 293 | 1.0 | 2.0 | 0.00 | 0.04 | 0.00 | 84 | 1013.2 |
| 20260506131502 | 56 | 330 | 1.0 | 2.0 | 0.00 | 0.04 | 0.00 | 84 | 1013.2 |
| 20260506131003 | 56 | 46 | 1.0 | 2.0 | 0.00 | 0.04 | 0.00 | 84 | 1013.4 |
| 20260506130503 | 56 | 37 | 1.0 | 3.0 | 0.00 | 0.04 | 0.00 | 83 | 1013.5 |
| 20260506130003 | 56 | 63 | 0.0 | 3.0 | 0.00 | 0.04 | 0.00 | 84 | 1013.3 |
| 20260506125503 | 56 | 159 | 0.0 | 2.0 | 0.00 | 0.04 | 0.00 | 83 | 1013.3 |
| 20260506125003 | 56 | 159 | 0.0 | 2.0 | 0.00 | 0.04 | 0.00 | 83 | 1013.1 |
| 20260506124503 | 56 | 160 | 0.0 | 2.0 | 0.00 | 0.04 | 0.00 | 83 | 1013.0 |
| 20260506122002 | 56 | 40 | 1.0 | 3.0 | 0.00 | 0.04 | 0.00 | 81 | 1012.8 |
| 20260506121502 | 56 | 359 | 1.0 | 3.0 | 0.00 | 0.04 | 0.00 | 81 | 1012.8 |
| 20260506120503 | 56 | 35 | 1.0 | 4.0 | 0.00 | 0.04 | 0.00 | 81 | 1012.7 |
| 20260506120002 | 56 | 28 | 1.0 | 4.0 | 0.00 | 0.04 | 0.00 | 80 | 1012.6 |
| 20260506115503 | 56 | 29 | 1.0 | 2.0 | 0.00 | 0.04 | 0.00 | 80 | 1012.4 |
| 20260506115003 | 57 | 39 | 1.0 | 3.0 | 0.00 | 0.04 | 0.00 | 80 | 1012.3 |
| 20260506114502 | 57 | 61 | 0.0 | 3.0 | 0.00 | 0.04 | 0.00 | 80 | 1012.1 |
| 20260506114003 | 57 | 55 | 1.0 | 2.0 | 0.00 | 0.04 | 0.00 | 80 | 1012.0 |
| 20260506113503 | 57 | 47 | 1.0 | 4.0 | 0.00 | 0.04 | 0.00 | 80 | 1011.8 |
| 20260506113003 | 57 | 39 | 1.0 | 4.0 | 0.00 | 0.04 | 0.00 | 79 | 1011.8 |
| 20260506112503 | 57 | 21 | 1.0 | 4.0 | 0.00 | 0.04 | 0.00 | 79 | 1012.1 |
| 20260506111003 | 58 | 68 | 1.0 | 2.0 | 0.00 | 0.04 | 0.00 | 79 | 1011.7 |
| 20260506110503 | 58 | 45 | 0.0 | 2.0 | 0.00 | 0.04 | 0.00 | 78 | 1011.7 |
| 20260506110004 | 58 | 2 | 1.0 | 2.0 | 0.00 | 0.04 | 0.00 | 78 | 1011.5 |
| 20260506105503 | 58 | 11 | 1.0 | 2.0 | 0.00 | 0.04 | 0.00 | 78 | 1011.5 |
| 20260506105003 | 58 | 56 | 0.0 | 2.0 | 0.00 | 0.04 | 0.00 | 78 | 1011.3 |
| 20260506104503 | 58 | 97 | 0.0 | 2.0 | 0.00 | 0.04 | 0.00 | 78 | 1011.2 |
| 20260506103004 | 58 | 336 | 1.0 | 2.0 | 0.00 | 0.04 | 0.00 | 78 | 1011.0 |
| 20260506102503 | 58 | 283 | 0.0 | 2.0 | 0.00 | 0.04 | 0.00 | 78 | 1010.8 |
| 20260506102002 | 58 | 280 | 0.0 | 2.0 | 0.00 | 0.04 | 0.00 | 78 | 1010.6 |
| 20260506101503 | 59 | 325 | 1.0 | 2.0 | 0.00 | 0.04 | 0.00 | 78 | 1010.6 |
| 20260506101003 | 59 | 60 | 0.0 | 2.0 | 0.00 | 0.04 | 0.00 | 78 | 1010.4 |
| 20260506100503 | 59 | 47 | 0.0 | 2.0 | 0.00 | 0.04 | 0.00 | 78 | 1010.5 |
| 20260506100004 | 59 | 11 | 0.0 | 2.0 | 0.00 | 0.04 | 0.00 | 78 | 1010.5 |
| 20260506095503 | 59 | 325 | 0.0 | 2.0 | 0.00 | 0.04 | 0.00 | 78 | 1010.6 |
| 20260506094503 | 59 | 43 | 0.0 | 2.0 | 0.00 | 0.04 | 0.00 | 77 | 1010.4 |
| 20260506094003 | 59 | 56 | 0.0 | 4.0 | 0.00 | 0.04 | 0.00 | 77 | 1010.4 |
| 20260506093503 | 59 | 221 | 0.0 | 4.0 | 0.00 | 0.04 | 0.00 | 78 | 1010.5 |
| 20260506093003 | 59 | 225 | 0.0 | 1.0 | 0.00 | 0.04 | 0.00 | 78 | 1010.5 |
| 20260506092503 | 59 | 224 | 0.0 | 1.0 | 0.00 | 0.04 | 0.00 | 78 | 1010.4 |
| 20260506091503 | 59 | 238 | 0.0 | 1.0 | 0.00 | 0.04 | 0.00 | 78 | 1010.3 |
| 20260506090003 | 60 | 109 | 0.0 | 1.0 | 0.00 | 0.04 | 0.00 | 78 | 1010.1 |
| 20260506085503 | 60 | 108 | 0.0 | 1.0 | 0.00 | 0.04 | 0.00 | 78 | 1010.0 |
| 20260506085003 | 60 | 108 | 0.0 | 1.0 | 0.00 | 0.04 | 0.00 | 79 | 1009.9 |
| 20260506084503 | 60 | 108 | 0.0 | 1.0 | 0.00 | 0.04 | 0.00 | 79 | 1009.9 |
| 20260506084003 | 60 | 108 | 0.0 | 1.0 | 0.00 | 0.04 | 0.00 | 78 | 1010.0 |
| 20260506083503 | 60 | 0 | 0.0 | 0.0 | 0.00 | 0.04 | 0.00 | 79 | 1009.7 |
| 20260506083003 | 60 | 108 | 0.0 | 1.0 | 0.00 | 0.04 | 0.00 | 79 | 1009.5 |
| 20260506082502 | 60 | 109 | 0.0 | 1.0 | 0.00 | 0.04 | 0.00 | 79 | 1009.4 |
| 20260506081504 | 60 | 138 | 0.0 | 2.0 | 0.00 | 0.04 | 0.00 | 79 | 1009.4 |
| 20260506081003 | 60 | 79 | 0.0 | 3.0 | 0.00 | 0.04 | 0.00 | 79 | 1009.5 |
| 20260506080503 | 61 | 65 | 0.0 | 3.0 | 0.00 | 0.04 | 0.00 | 79 | 1009.6 |
| 20260506073504 | 61 | 102 | 0.0 | 2.0 | 0.00 | 0.04 | 0.00 | 79 | 1009.8 |
| 20260506073003 | 62 | 102 | 0.0 | 2.0 | 0.00 | 0.04 | 0.00 | 79 | 1009.8 |
| 20260506072503 | 62 | 108 | 0.0 | 2.0 | 0.00 | 0.04 | 0.00 | 80 | 1009.7 |
| 20260506072003 | 62 | 94 | 0.0 | 2.0 | 0.00 | 0.04 | 0.00 | 80 | 1009.7 |
| 20260506071503 | 62 | 88 | 0.0 | 1.0 | 0.00 | 0.04 | 0.00 | 80 | 1009.8 |
| 20260506071003 | 62 | 81 | 0.0 | 2.0 | 0.00 | 0.04 | 0.00 | 80 | 1009.7 |
| 20260506070503 | 62 | 86 | 0.0 | 2.0 | 0.00 | 0.04 | 0.00 | 80 | 1009.7 |
| 20260506062504 | 64 | 356 | 0.0 | 2.0 | 0.00 | 0.04 | 0.00 | 80 | 1009.5 |
| 20260506062004 | 64 | 326 | 0.0 | 1.0 | 0.00 | 0.04 | 0.00 | 80 | 1009.5 |
| 20260506061503 | 64 | 348 | 0.0 | 3.0 | 0.00 | 0.04 | 0.00 | 80 | 1009.4 |
| 20260506061004 | 64 | 301 | 0.0 | 3.0 | 0.00 | 0.04 | 0.00 | 80 | 1009.5 |